CW4221 Weather Reports


Display with metric or nautical units.
time (UTC)temp
F
wind
direction
speed
MPH
gust
MPH
rain 1hr
in
rain 24hr
in
rain mn
in
humidity
%
barometer
mb
20260509170317 78 257 0.0 1.0 0.00 0.00 0.00 47 1011.6
20260509165812 78 253 0.0 1.0 0.00 0.00 0.00 48 1011.6
20260509165328 78 331 0.0 0.0 0.00 0.00 0.00 53 1011.5
20260509164825 78 255 0.0 5.0 0.00 0.00 0.00 51 1011.4
20260509164342 78 245 0.0 5.0 0.00 0.00 0.00 48 1011.4
20260509163821 78 347 0.0 9.0 0.00 0.00 0.00 50 1011.3
20260509163317 77 330 0.0 9.0 0.00 0.00 0.00 49 1011.4
20260509162813 77 240 0.0 2.0 0.00 0.00 0.00 54 1011.5
20260509162330 77 258 0.0 2.0 0.00 0.00 0.00 52 1011.4
20260509161827 77 348 0.0 1.0 0.00 0.00 0.00 53 1011.4
20260509161323 77 240 0.0 1.0 0.00 0.00 0.00 53 1011.5
20260509160819 76 288 0.0 1.0 0.00 0.00 0.00 51 1011.6
20260509160314 76 259 0.0 0.0 0.00 0.00 0.00 52 1011.4
20260509155830 76 221 0.0 2.0 0.00 0.00 0.00 55 1011.4
20260509155310 75 210 0.0 1.0 0.00 0.00 0.00 60 1011.4
20260509135317 0 0.0 0.0 0.00 0.00 0.00 1011.1
20260509134813 0 0.0 0.0 0.00 0.00 0.00 1011.1
20260509134349 0 0.0 0.0 0.00 0.00 0.00 1011.2
20260509133823 0 0.0 0.0 0.00 0.00 0.00 1011.2
20260509133319 0 0.0 0.0 0.00 0.00 0.00 1011.1
20260509132819 0 0.0 0.0 0.00 0.00 0.00 1011.1
20260509132336 0 0.0 0.0 0.00 0.00 0.00 1011.0
20260509131831 0 0.0 0.0 0.00 0.00 0.00 1011.0
20260509131321 0 0.0 0.0 0.00 0.00 0.00 1010.9
20260509130818 0 0.0 0.0 0.00 0.00 0.00 1010.8
20260509130334 0 0.0 0.0 0.00 0.00 0.00 1010.8
20260509125909 57 294 0.0 0.0 0.00 0.00 0.00 97 1010.9
20260509125328 57 294 0.0 0.0 0.00 0.00 0.00 97 1010.9
20260509124823 56 74 0.0 0.0 0.00 0.00 0.00 97 1010.9
20260509124318 56 42 0.0 0.0 0.00 0.00 0.00 97 1010.9
20260509123818 55 43 0.0 0.0 0.00 0.00 0.00 97 1010.8
20260509123311 54 42 0.0 0.0 0.00 0.00 0.00 97 1010.8
20260509122827 54 20 0.0 0.0 0.00 0.00 0.00 97 1010.8
20260509122324 53 20 0.0 0.0 0.00 0.00 0.00 96 1010.7
20260509121819 52 20 0.0 0.0 0.00 0.00 0.00 97 1010.8
20260509121316 51 118 0.0 0.0 0.00 0.00 0.00 96 1010.8
20260509120832 50 127 0.0 0.0 0.00 0.00 0.00 96 1010.7
20260509120326 50 127 0.0 0.0 0.00 0.00 0.00 96 1010.6
20260509115827 50 127 0.0 0.0 0.00 0.00 0.00 96 1010.5
20260509115342 49 350 0.0 0.0 0.00 0.00 0.00 96 1010.5
20260509114816 49 355 0.0 1.0 0.00 0.00 0.00 96 1010.4
20260509114332 47 40 0.0 1.0 0.00 0.00 0.00 96 1010.4
20260509113828 46 355 0.0 0.0 0.00 0.00 0.00 95 1010.4
20260509113323 46 355 0.0 0.0 0.00 0.00 0.00 95 1010.4
20260509112839 46 355 0.0 0.0 0.00 0.00 0.00 95 1010.3
20260509112313 47 355 0.0 0.0 0.00 0.00 0.00 95 1010.3
20260509111809 46 344 0.0 0.0 0.00 0.00 0.00 95 1010.3
20260509111310 46 140 0.0 0.0 0.00 0.00 0.00 95 1010.2
20260509110827 46 140 0.0 0.0 0.00 0.00 0.00 95 1010.2
20260509110324 47 200 0.0 0.0 0.00 0.00 0.00 95 1010.1
20260509105819 47 200 0.0 0.0 0.00 0.00 0.00 96 1010.2
20260509105315 47 200 0.0 0.0 0.00 0.00 0.00 95 1010.2
20260509104810 46 217 0.0 0.0 0.00 0.00 0.00 95 1010.1
20260509104346 46 217 0.0 0.0 0.00 0.00 0.00 96 1010.0
20260509103822 46 217 0.0 0.0 0.00 0.00 0.00 95 1010.0
20260509103321 47 217 0.0 0.0 0.00 0.00 0.00 95 1010.0
20260509102817 48 217 0.0 0.0 0.00 0.00 0.00 95 1010.1
20260509102313 48 217 0.0 0.0 0.00 0.00 0.00 96 1010.1
20260509101829 47 217 0.0 0.0 0.00 0.00 0.00 95 1010.1
20260509101325 47 217 0.0 0.0 0.00 0.00 0.00 95 1010.0
20260509100821 47 217 0.0 0.0 0.00 0.00 0.00 95 1010.1
20260509100318 47 217 0.0 0.0 0.00 0.00 0.00 95 1010.1
20260509095818 47 217 0.0 0.0 0.00 0.00 0.00 95 1010.2
20260509095314 47 217 0.0 0.0 0.00 0.00 0.00 95 1010.1
20260509094849 48 217 0.0 0.0 0.00 0.00 0.00 95 1010.2
20260509094344 48 217 0.0 0.0 0.00 0.00 0.00 95 1010.1
20260509093839 48 217 0.0 0.0 0.00 0.00 0.00 95 1010.1
20260509093333 48 217 0.0 0.0 0.00 0.00 0.00 95 1010.1
20260509092828 47 217 0.0 0.0 0.00 0.00 0.00 95 1010.1
20260509092325 47 217 0.0 0.0 0.00 0.00 0.00 95 1010.1
20260509091821 47 217 0.0 0.0 0.00 0.00 0.00 94 1010.1
20260509091320 48 217 0.0 0.0 0.00 0.00 0.00 95 1010.0
20260509090837 48 217 0.0 0.0 0.00 0.00 0.00 95 1010.0
20260509090312 48 217 0.0 0.0 0.00 0.00 0.00 95 1010.0
20260509085824 48 217 0.0 0.0 0.00 0.00 0.00 94 1010.0
20260509085320 49 217 0.0 0.0 0.00 0.00 0.00 95 1010.0
20260509084816 49 217 0.0 0.0 0.00 0.00 0.00 95 1010.0
20260509084312 49 217 0.0 0.0 0.00 0.00 0.00 95 1010.1
20260509083827 48 217 0.0 0.0 0.00 0.00 0.00 95 1010.1
20260509083327 49 217 0.0 0.0 0.00 0.00 0.00 95 1010.0
20260509082823 49 217 0.0 0.0 0.00 0.00 0.00 95 1010.0
20260509082319 49 217 0.0 0.0 0.00 0.00 0.00 95 1010.0
20260509081834 49 217 0.0 0.0 0.00 0.00 0.00 95 1010.1
20260509081349 49 217 0.0 0.0 0.00 0.00 0.00 94 1010.1
20260509080825 49 217 0.0 0.0 0.00 0.00 0.00 94 1010.1
20260509080322 50 217 0.0 0.0 0.00 0.00 0.00 94 1010.1
20260509075816 51 217 0.0 0.0 0.00 0.00 0.00 95 1010.0
20260509075317 51 217 0.0 0.0 0.00 0.00 0.00 95 1010.1
20260509074813 51 217 0.0 0.0 0.00 0.00 0.00 95 1010.0
20260509074328 50 217 0.0 0.0 0.00 0.00 0.00 95 1010.0
20260509073824 50 217 0.0 0.0 0.00 0.00 0.00 94 1010.0
20260509073320 50 217 0.0 0.0 0.00 0.00 0.00 94 1009.9
20260509072836 50 217 0.0 0.0 0.00 0.00 0.00 93 1010.0
20260509072331 51 217 0.0 0.0 0.00 0.00 0.00 94 1010.0
20260509071826 51 217 0.0 0.0 0.00 0.00 0.00 94 1009.9
20260509071342 51 217 0.0 0.0 0.00 0.00 0.00 94 1009.9
20260509070817 51 217 0.0 0.0 0.00 0.00 0.00 94 1010.0
20260509070316 52 217 0.0 0.0 0.00 0.00 0.00 94 1010.0
20260509065811 52 217 0.0 0.0 0.00 0.00 0.00 94 1009.9
20260509065328 52 217 0.0 0.0 0.00 0.00 0.00 94 1010.0
20260509064823 51 217 0.0 0.0 0.00 0.00 0.00 94 1010.0
20260509064340 51 217 0.0 0.0 0.00 0.00 0.00 93 1010.0
20260509063816 52 217 0.0 0.0 0.00 0.00 0.00 93 1009.9
20260509063312 52 217 0.0 0.0 0.00 0.00 0.00 94 1009.9
20260509062809 52 217 0.0 0.0 0.00 0.00 0.00 93 1010.0
20260509062310 53 217 0.0 0.0 0.00 0.00 0.00 93 1010.2
20260509061846 53 217 0.0 0.0 0.00 0.00 0.00 94 1010.2
20260509061342 54 217 0.0 0.0 0.00 0.00 0.00 93 1010.1
20260509060816 54 217 0.0 0.0 0.00 0.00 0.00 94 1010.1
20260509060312 53 217 0.0 0.0 0.00 0.00 0.00 93 1010.1
20260509055828 54 217 0.0 0.0 0.00 0.00 0.00 93 1010.2
20260509055323 54 217 0.0 0.0 0.00 0.00 0.00 93 1010.3
20260509054819 55 217 0.0 0.0 0.00 0.00 0.00 94 1010.2
20260509054320 55 217 0.0 0.0 0.00 0.00 0.00 94 1010.3
20260509053817 54 217 0.0 0.0 0.00 0.00 0.00 94 1010.3
20260509053314 54 217 0.0 0.0 0.00 0.00 0.00 92 1010.3
20260509052811 55 217 0.0 0.0 0.00 0.00 0.00 92 1010.3
20260509052328 56 217 0.0 0.0 0.00 0.00 0.00 93 1010.3
20260509051823 56 217 0.0 0.0 0.00 0.00 0.00 93 1010.2
20260509051319 56 217 0.0 0.0 0.00 0.00 0.00 92 1010.1
20260509050820 57 217 0.0 0.0 0.00 0.00 0.00 93 1010.1
20260509050315 56 217 0.0 0.0 0.00 0.00 0.00 93 1010.0
20260509045812 56 217 0.0 0.0 0.00 0.00 0.00 92 1010.0
20260509045327 57 217 0.0 0.0 0.00 0.00 0.00 92 1009.9
20260509044822 57 217 0.0 0.0 0.00 0.00 0.00 92 1009.9
20260509044318 58 217 0.0 0.0 0.00 0.00 0.00 92 1009.9
20260509043814 58 217 0.0 0.0 0.00 0.00 0.00 92 1009.9
20260509043311 57 217 0.0 0.0 0.00 0.00 0.00 91 1009.9
20260509042812 58 217 0.0 0.0 0.00 0.00 0.00 91 1009.8
20260509042328 58 217 0.0 0.0 0.00 0.00 0.00 91 1009.9
20260509041824 58 217 0.0 0.0 0.00 0.00 0.00 91 1009.9
20260509041320 58 217 0.0 0.0 0.00 0.00 0.00 90 1009.9
20260509040816 59 217 0.0 1.0 0.00 0.00 0.00 89 1009.9
20260509040311 59 215 0.0 1.0 0.00 0.00 0.00 89 1010.0
20260509035827 60 215 0.0 0.0 0.00 0.00 0.00 89 1010.0
20260509035328 60 216 0.0 0.0 0.00 0.00 0.00 89 1010.0
20260509034825 61 216 0.0 0.0 0.00 0.00 0.00 89 1010.0
20260509034320 61 216 0.0 0.0 0.00 0.00 0.00 88 1010.2
20260509033836 61 237 0.0 0.0 0.00 0.00 0.00 87 1010.2
20260509033311 61 9 0.0 0.0 0.00 0.00 0.00 87 1010.0
20260509032827 61 9 0.0 0.0 0.00 0.00 0.00 86 1010.0
20260509032322 61 9 0.0 0.0 0.00 0.00 0.00 86 1010.0
20260509031839 62 9 0.0 1.0 0.00 0.00 0.00 85 1010.1
20260509031313 62 5 0.0 2.0 0.00 0.00 0.00 84 1010.2
20260509030813 62 27 0.0 2.0 0.00 0.00 0.00 83 1010.2
20260509030349 63 14 0.0 1.0 0.00 0.00 0.00 82 1010.2
20260509025824 63 339 0.0 1.0 0.00 0.00 0.00 81 1010.0
20260509025320 64 338 0.0 5.0 0.00 0.00 0.00 79 1009.8
20260509024816 64 343 0.0 6.0 0.00 0.00 0.00 77 1009.6
20260509024312 65 360 0.0 6.0 0.00 0.00 0.00 75 1009.5
20260509023827 65 334 0.0 3.0 0.00 0.00 0.00 72 1009.4
20260509023324 65 333 0.0 3.0 0.00 0.00 0.00 71 1009.4
20260509022824 65 329 0.0 3.0 0.00 0.00 0.00 71 1009.1
20260509022321 65 328 0.0 0.0 0.00 0.00 0.00 70 1009.0
20260509021818 65 250 0.0 0.0 0.00 0.00 0.00 68 1008.6
20260509021315 65 250 0.0 0.0 0.00 0.00 0.00 68 1008.2
20260509020812 65 249 0.0 0.0 0.00 0.00 0.00 67 1007.9
20260509020328 65 248 0.0 0.0 0.00 0.00 0.00 66 1007.6
20260509015843 65 248 0.0 0.0 0.00 0.00 0.00 66 1007.5
20260509015323 65 212 0.0 0.0 0.00 0.00 0.00 67 1007.4
20260509014818 65 212 0.0 0.0 0.00 0.00 0.00 67 1007.3
20260509014315 65 211 0.0 0.0 0.00 0.00 0.00 67 1007.2
20260509013831 65 212 0.0 0.0 0.00 0.00 0.00 67 1007.2
20260509013346 65 212 0.0 0.0 0.00 0.00 0.00 67 1007.0
20260509012821 65 214 0.0 0.0 0.00 0.00 0.00 67 1006.9
20260509012337 65 211 0.0 0.0 0.00 0.00 0.00 67 1006.7
20260509011832 65 159 0.0 0.0 0.00 0.00 0.00 67 1006.5
20260509011327 65 188 0.0 0.0 0.00 0.00 0.00 67 1006.7
20260509010821 65 140 0.0 0.0 0.00 0.00 0.00 67 1006.8
20260509010322 65 134 0.0 0.0 0.00 0.00 0.00 67 1006.8
20260509005818 65 141 0.0 1.0 0.00 0.00 0.00 67 1007.0
20260509005313 65 221 0.0 1.0 0.00 0.00 0.00 66 1007.0
20260509004828 66 141 0.0 1.0 0.00 0.00 0.00 66 1007.3
20260509004323 66 137 0.0 1.0 0.00 0.00 0.00 66 1007.3
20260509003841 66 84 0.0 1.0 0.00 0.00 0.00 66 1007.1
20260509003315 66 151 0.0 0.0 0.00 0.00 0.00 65 1007.0
20260509002811 67 267 0.0 0.0 0.00 0.00 0.00 64 1007.1
20260509002311 67 269 0.0 1.0 0.00 0.00 0.00 63 1007.3
20260509001827 67 269 0.0 1.0 0.00 0.00 0.00 63 1007.4
20260509001344 67 219 0.0 0.0 0.00 0.00 0.00 62 1007.4
20260509000820 67 254 0.0 0.0 0.00 0.00 0.00 62 1007.4
20260509000314 67 207 0.0 1.0 0.00 0.00 0.00 61 1007.3
20260508235809 68 237 0.0 3.0 0.00 0.00 0.00 60 1007.1
20260508235325 68 209 0.0 7.0 0.00 0.00 0.00 60 1007.0
20260508234821 69 217 0.0 7.0 0.00 0.00 0.00 58 1007.3
20260508234317 69 310 0.0 3.0 0.00 0.00 0.00 57 1007.4
20260508233817 70 169 0.0 2.0 0.00 0.00 0.00 58 1007.7
20260508233313 70 200 0.0 2.0 0.00 0.00 0.00 57 1008.1
20260508232810 70 216 0.0 1.0 0.00 0.00 0.00 56 1008.4
20260508232326 71 243 0.0 0.0 0.00 0.00 0.00 56 1008.4
20260508231821 71 233 0.0 0.0 0.00 0.00 0.00 54 1008.5
20260508231339 71 225 0.0 0.0 0.00 0.00 0.00 53 1008.4
20260508230814 72 271 0.0 0.0 0.00 0.00 0.00 53 1008.5
20260508230310 72 271 0.0 2.0 0.00 0.00 0.00 51 1008.7
20260508225844 72 268 0.0 3.0 0.00 0.00 0.00 51 1008.7
20260508225324 73 268 0.0 3.0 0.00 0.00 0.00 51 1008.7
20260508224821 73 259 0.0 1.0 0.00 0.00 0.00 48 1008.7
20260508224316 73 248 0.0 0.0 0.00 0.00 0.00 49 1008.7
20260508223812 74 244 0.0 2.0 0.00 0.00 0.00 48 1008.7
20260508223328 74 269 0.0 6.0 0.00 0.00 0.00 48 1008.7
20260508222826 74 223 0.0 6.0 0.00 0.00 0.00 47 1008.8
20260508222321 74 258 0.0 4.0 0.00 0.00 0.00 47 1008.7
20260508221822 74 248 0.0 2.0 0.00 0.00 0.00 46 1008.5
20260508221318 74 257 0.0 1.0 0.00 0.00 0.00 46 1008.3
20260508220815 75 223 0.0 1.0 0.00 0.00 0.00 47 1008.1
20260508220310 75 261 0.0 2.0 0.00 0.00 0.00 46 1008.1
20260508215824 75 209 0.0 9.0 0.00 0.00 0.00 47 1008.1
20260508215321 76 228 0.0 9.0 0.00 0.00 0.00 45 1008.0
20260508214817 76 219 1.0 7.0 0.00 0.00 0.00 44 1007.8
20260508214317 77 201 0.0 7.0 0.00 0.00 0.00 47 1007.7
20260508213813 77 168 0.0 7.0 0.00 0.00 0.00 46 1007.8
20260508213329 77 219 1.0 6.0 0.00 0.00 0.00 45 1007.8
20260508212847 77 192 0.0 6.0 0.00 0.00 0.00 46 1007.9
20260508212322 77 198 0.0 6.0 0.00 0.00 0.00 46 1007.9
20260508211816 77 129 0.0 14.0 0.00 0.00 0.00 45 1007.9
20260508211332 78 226 2.0 14.0 0.00 0.00 0.00 46 1008.1
20260508210828 77 156 0.0 4.0 0.00 0.00 0.00 47 1008.1
20260508210328 77 166 0.0 4.0 0.00 0.00 0.00 47 1008.2
20260508205824 77 180 0.0 5.0 0.00 0.00 0.00 45 1008.3
20260508205320 77 130 0.0 6.0 0.00 0.00 0.00 46 1008.4
20260508204835 77 254 0.0 6.0 0.00 0.00 0.00 46 1008.5
20260508204312 77 188 0.0 3.0 0.00 0.00 0.00 44 1008.5
20260508203828 77 241 0.0 7.0 0.00 0.00 0.00 46 1008.6
20260508203324 77 125 0.0 7.0 0.00 0.00 0.00 46 1008.7
20260508202818 77 234 0.0 7.0 0.00 0.00 0.00 46 1008.9
20260508202319 76 240 0.0 8.0 0.00 0.00 0.00 46 1009.0
20260508201814 76 254 1.0 9.0 0.00 0.00 0.00 47 1009.1
20260508201310 76 221 1.0 9.0 0.00 0.00 0.00 46 1009.2
20260508200826 76 205 1.0 10.0 0.00 0.00 0.00 48 1009.3
20260508200321 76 248 0.0 8.0 0.00 0.00 0.00 49 1009.3
20260508195818 76 223 0.0 6.0 0.00 0.00 0.00 49 1009.4
20260508195314 75 207 0.0 2.0 0.00 0.00 0.00 54 1009.6
20260508194850 75 231 0.0 7.0 0.00 0.00 0.00 52 1009.7
20260508194329 75 202 0.0 4.0 0.00 0.00 0.00 51 1009.9
20260508193825 75 112 0.0 4.0 0.00 0.00 0.00 52 1009.9
20260508193321 75 227 0.0 5.0 0.00 0.00 0.00 51 1010.0
20260508192817 75 131 0.0 8.0 0.00 0.00 0.00 52 1010.0
20260508192313 75 115 0.0 4.0 0.00 0.00 0.00 53 1010.0
20260508191809 75 197 0.0 8.0 0.00 0.00 0.00 53 1010.1
20260508191325 75 181 0.0 1.0 0.00 0.00 0.00 53 1010.2
20260508190825 75 157 0.0 1.0 0.00 0.00 0.00 56 1010.2
20260508190321 74 149 0.0 4.0 0.00 0.00 0.00 61 1010.3
20260508185816 73 240 0.0 3.0 0.00 0.00 0.00 58 1010.4
20260508185311 73 227 0.0 1.0 0.00 0.00 0.00 57 1010.4
20260508184827 72 215 0.0 1.0 0.00 0.00 0.00 59 1010.5
20260508184324 72 251 0.0 1.0 0.00 0.00 0.00 58 1010.7
20260508183821 72 212 0.0 6.0 0.00 0.00 0.00 58 1010.7
20260508183337 72 209 0.0 6.0 0.00 0.00 0.00 59 1010.8
20260508182816 72 209 0.0 1.0 0.00 0.00 0.00 58 1010.8
20260508182312 72 203 0.0 5.0 0.00 0.00 0.00 57 1010.9
20260508181827 72 234 0.0 9.0 0.00 0.00 0.00 53 1010.9
20260508181322 73 241 0.0 9.0 0.00 0.00 0.00 54 1011.0
20260508180839 72 209 0.0 5.0 0.00 0.00 0.00 53 1011.1
20260508180314 72 214 1.0 4.0 0.00 0.00 0.00 55 1011.2
20260508175829 72 201 0.0 5.0 0.00 0.00 0.00 53 1011.2
20260508175345 72 142 0.0 8.0 0.00 0.00 0.00 54 1011.3
20260508174841 73 209 1.0 8.0 0.00 0.00 0.00 54 1011.5
20260508174320 73 212 0.0 5.0 0.00 0.00 0.00 59 1011.6
20260508173816 72 210 0.0 2.0 0.00 0.00 0.00 57 1011.6
20260508173312 72 270 0.0 3.0 0.00 0.00 0.00 58 1011.7
20260508172849 72 243 0.0 9.0 0.00 0.00 0.00 56 1011.8
20260508172323 72 206 0.0 9.0 0.00 0.00 0.00 55 1011.9
20260508171838 72 249 1.0 8.0 0.00 0.00 0.00 56 1011.9
20260508171313 72 147 1.0 8.0 0.00 0.00 0.00 55 1012.0
20260508170809 72 222 0.0 1.0 0.00 0.00 0.00 61 1012.0